When you browse on this site, cookies collect data to enhance your experience and personalize the content and advertising you see.
Visit our Privacy Policy to learn more. By continuing to use the site, you agree to this use of cookies and data.
  • In Czech Republic
  • List of Countries
  • For 7 days
  • Water Temperature
  • Satellite Maps
  • Weather Map
  • Weather Widgets
  • user-avatar
    Login

    Hourly Weather Sozopol

    Today, 23 January, Wednesday

    Time Temperature Precipitation Wind Pressure Humidity
    00:00 +5°C° 0 mm 5 mps 754 mmHg 92%
    01:00 +5°C° 0 mm 5 mps 754 mmHg 91%
    02:00 +5°C° 0 mm 4 mps 753 mmHg 91%
    03:00 +6°C° 0.5 mm 5 mps 752 mmHg 89%
    04:00 +7°C° 0.5 mm 5 mps 752 mmHg 88%
    05:00 +7°C° 0.5 mm 5 mps 751 mmHg 86%
    06:00 +7°C° 0 mm 5 mps 751 mmHg 86%
    07:00 +8°C° 0 mm 5 mps 750 mmHg 85%
    08:00 +8°C° 0 mm 5 mps 750 mmHg 85%
    09:00 +9°C° 0 mm 5 mps 750 mmHg 81%
    10:00 +11°C° 0 mm 6 mps 750 mmHg 76%
    11:00 +12°C° 0 mm 7 mps 750 mmHg 72%
    12:00 +12°C° 0 mm 7 mps 750 mmHg 70%
    13:00 +14°C° 0 mm 7 mps 749 mmHg 69%
    14:00 +14°C° 0 mm 7 mps 749 mmHg 68%
    15:00 +13°C° 0.1 mm 6 mps 749 mmHg 71%
    16:00 +11°C° 0.1 mm 6 mps 749 mmHg 75%
    17:00 +11°C° 0.1 mm 6 mps 749 mmHg 79%
    18:00 +10°C° 0 mm 5 mps 749 mmHg 80%
    19:00 +10°C° 0 mm 5 mps 749 mmHg 81%
    20:00 +10°C° 0 mm 5 mps 749 mmHg 82%
    21:00 +10°C° 0.1 mm 5 mps 748 mmHg 82%
    22:00 +10°C° 0.1 mm 6 mps 748 mmHg 82%
    23:00 +10°C° 0.1 mm 6 mps 748 mmHg 82%

    Tomorrow, 24 January, Thursday

    Time Temperature Precipitation Wind Pressure Humidity
    00:00 +9°C° 0.1 mm 6 mps 748 mmHg 84%
    01:00 +9°C° 0.1 mm 6 mps 748 mmHg 85%
    02:00 +9°C° 0.1 mm 5 mps 747 mmHg 86%
    03:00 +8°C° 0.1 mm 5 mps 747 mmHg 87%
    04:00 +8°C° 0.1 mm 5 mps 746 mmHg 87%
    05:00 +8°C° 0.1 mm 5 mps 746 mmHg 88%
    06:00 +8°C° 0.6 mm 6 mps 745 mmHg 87%
    07:00 +8°C° 0.6 mm 6 mps 745 mmHg 87%
    08:00 +8°C° 0.6 mm 6 mps 745 mmHg 86%
    09:00 +8°C° 2.2 mm 6 mps 745 mmHg 85%
    10:00 +8°C° 2.2 mm 5 mps 744 mmHg 84%
    11:00 +9°C° 2.2 mm 5 mps 744 mmHg 83%
    12:00 +9°C° 0.1 mm 5 mps 744 mmHg 81%
    13:00 +10°C° 0.1 mm 6 mps 744 mmHg 78%
    14:00 +10°C° 0.1 mm 6 mps 743 mmHg 76%
    15:00 +10°C° 0 mm 5 mps 743 mmHg 78%
    16:00 +9°C° 0 mm 5 mps 743 mmHg 81%
    17:00 +10°C° 0 mm 4 mps 743 mmHg 84%
    18:00 +10°C° 0 mm 4 mps 743 mmHg 85%
    19:00 +8°C° 0 mm 4 mps 744 mmHg 87%
    20:00 +8°C° 0 mm 4 mps 744 mmHg 89%
    21:00 +8°C° 0 mm 4 mps 744 mmHg 88%
    22:00 +8°C° 0 mm 4 mps 745 mmHg 87%
    23:00 +8°C° 0 mm 4 mps 745 mmHg 86%

    Day after tomorrow, 25 January, Friday

    Time Temperature Precipitation Wind Pressure Humidity
    00:00 +8°C° 0 mm 4 mps 746 mmHg 85%
    01:00 +8°C° 0 mm 4 mps 746 mmHg 84%
    02:00 +8°C° 0 mm 4 mps 746 mmHg 83%
    03:00 +8°C° 0 mm 4 mps 746 mmHg 84%
    04:00 +7°C° 0 mm 4 mps 746 mmHg 85%
    05:00 +8°C° 0 mm 3 mps 746 mmHg 86%
    06:00 +7°C° 0 mm 4 mps 746 mmHg 84%
    07:00 +8°C° 0 mm 5 mps 746 mmHg 82%
    08:00 +8°C° 0 mm 5 mps 746 mmHg 80%
    09:00 +8°C° 1.5 mm 6 mps 746 mmHg 80%
    10:00 +8°C° 1.5 mm 6 mps 746 mmHg 81%
    11:00 +9°C° 1.5 mm 6 mps 746 mmHg 81%
    12:00 +9°C° 0.2 mm 6 mps 746 mmHg 79%
    13:00 +10°C° 0.2 mm 5 mps 745 mmHg 77%
    14:00 +10°C° 0.2 mm 5 mps 745 mmHg 75%
    15:00 +10°C° 0 mm 5 mps 745 mmHg 78%
    16:00 +9°C° 0 mm 5 mps 745 mmHg 80%
    17:00 +9°C° 0 mm 6 mps 745 mmHg 82%
    18:00 +9°C° 0.2 mm 5 mps 744 mmHg 85%
    19:00 +9°C° 0.2 mm 5 mps 744 mmHg 88%
    20:00 +8°C° 0.2 mm 4 mps 744 mmHg 91%
    21:00 +9°C° 0.2 mm 6 mps 744 mmHg 88%
    22:00 +9°C° 0.2 mm 7 mps 744 mmHg 84%
    23:00 +9°C° 0.2 mm 8 mps 743 mmHg 81%

    26 January, Saturday

    Time Temperature Precipitation Wind Pressure Humidity
    00:00 +9°C° 0.1 mm 7 mps 743 mmHg 83%
    01:00 +9°C° 0.1 mm 7 mps 743 mmHg 85%
    02:00 +8°C° 0.1 mm 6 mps 743 mmHg 86%
    03:00 +8°C° 0 mm 5 mps 743 mmHg 88%
    04:00 +7°C° 0 mm 4 mps 743 mmHg 89%
    05:00 +8°C° 0 mm 3 mps 743 mmHg 90%
    06:00 +8°C° 0 mm 3 mps 743 mmHg 89%
    07:00 +8°C° 0 mm 2 mps 743 mmHg 88%
    08:00 +9°C° 0 mm 1 mps 743 mmHg 88%
    09:00 +9°C° 0.1 mm 2 mps 744 mmHg 84%
    10:00 +10°C° 0.1 mm 2 mps 744 mmHg 81%
    11:00 +12°C° 0.1 mm 2 mps 744 mmHg 78%
    12:00 +11°C° 0 mm 3 mps 744 mmHg 77%
    13:00 +11°C° 0 mm 3 mps 744 mmHg 75%
    14:00 +12°C° 0 mm 4 mps 743 mmHg 74%
    15:00 +11°C° 0.1 mm 4 mps 744 mmHg 77%
    16:00 +10°C° 0.1 mm 4 mps 744 mmHg 80%
    17:00 +10°C° 0.1 mm 3 mps 744 mmHg 83%
    18:00 +9°C° 0.2 mm 3 mps 744 mmHg 85%
    19:00 +9°C° 0.2 mm 2 mps 745 mmHg 87%
    20:00 +10°C° 0.2 mm 1 mps 745 mmHg 88%
    21:00 +9°C° 0.2 mm 2 mps 745 mmHg 88%
    22:00 +8°C° 0.2 mm 2 mps 745 mmHg 89%
    23:00 +8°C° 0.2 mm 3 mps 746 mmHg 89%

    27 January, Sunday

    Time Temperature Precipitation Wind Pressure Humidity
    00:00 +8°C° 0.6 mm 3 mps 746 mmHg 90%
    01:00 +8°C° 0.6 mm 3 mps 746 mmHg 90%
    02:00 +8°C° 0.6 mm 3 mps 746 mmHg 91%
    03:00 +7°C° 0.1 mm 4 mps 746 mmHg 89%
    04:00 +7°C° 0.1 mm 4 mps 746 mmHg 88%
    05:00 +6°C° 0.1 mm 4 mps 746 mmHg 87%
    06:00 +6°C° 0 mm 4 mps 746 mmHg 86%
    07:00 +7°C° 0 mm 3 mps 746 mmHg 86%
    08:00 +7°C° 0 mm 3 mps 746 mmHg 86%
    09:00 +7°C° 0 mm 3 mps 747 mmHg 82%
    10:00 +8°C° 0 mm 3 mps 747 mmHg 77%
    11:00 +9°C° 0 mm 3 mps 747 mmHg 73%
    12:00 +9°C° 0 mm 3 mps 747 mmHg 71%
    13:00 +10°C° 0 mm 3 mps 747 mmHg 69%
    14:00 +10°C° 0 mm 2 mps 747 mmHg 66%
    15:00 +9°C° 0 mm 2 mps 747 mmHg 70%
    16:00 +9°C° 0 mm 2 mps 747 mmHg 73%
    17:00 +8°C° 0 mm 2 mps 747 mmHg 77%
    18:00 +7°C° 0 mm 2 mps 748 mmHg 79%
    19:00 +7°C° 0 mm 2 mps 748 mmHg 81%
    20:00 +6°C° 0 mm 2 mps 748 mmHg 83%
    21:00 +6°C° 0 mm 2 mps 749 mmHg 84%
    22:00 +6°C° 0 mm 2 mps 749 mmHg 84%
    23:00 +6°C° 0 mm 1 mps 750 mmHg 85%

    28 January, Monday

    Time Temperature Precipitation Wind Pressure Humidity
    00:00 +6°C° 0 mm 1 mps 750 mmHg 85%
    01:00 +6°C° 0 mm 1 mps 750 mmHg 85%
    02:00 +6°C° 0 mm 1 mps 751 mmHg 86%
    03:00 +6°C° 0 mm 1 mps 751 mmHg 86%
    04:00 +5°C° 0 mm 1 mps 751 mmHg 87%
    05:00 +5°C° 0 mm 1 mps 751 mmHg 87%
    06:00 +5°C° 0 mm 1 mps 752 mmHg 88%
    07:00 +5°C° 0 mm 1 mps 752 mmHg 88%
    08:00 +5°C° 0 mm 1 mps 752 mmHg 88%
    09:00 +7°C° 0 mm 1 mps 753 mmHg 81%
    10:00 +8°C° 0 mm 1 mps 753 mmHg 74%
    11:00 +10°C° 0 mm 1 mps 754 mmHg 67%
    12:00 +11°C° 0 mm 1 mps 754 mmHg 64%
    13:00 +12°C° 0 mm 2 mps 754 mmHg 61%
    14:00 +13°C° 0 mm 2 mps 754 mmHg 59%
    15:00 +12°C° 0 mm 2 mps 754 mmHg 64%
    16:00 +10°C° 0 mm 2 mps 755 mmHg 69%
    17:00 +10°C° 0 mm 2 mps 755 mmHg 73%
    18:00 +9°C° 0 mm 2 mps 755 mmHg 76%
    19:00 +8°C° 0 mm 3 mps 755 mmHg 79%
    20:00 +8°C° 0 mm 3 mps 756 mmHg 81%
    21:00 +8°C° 0 mm 3 mps 756 mmHg 83%
    22:00 +7°C° 0 mm 3 mps 756 mmHg 84%
    23:00 +7°C° 0 mm 3 mps 756 mmHg 86%
    Show more